User: anonymous   Login
Location: Newark
(56.0692°N, 115.8617°E)
Time: 05:47:26
(UTC+00:00)
Language:

Altair - Orbit

View from above orbital plane
View from above orbital plane
View from above satellite
View from above satellite

Ground track
Ground track

The orbit data is extracted from the following two-line orbital elements,

1    50U 60009B   20157.67623895 -.00000120 +00000-0 -33166-3 0  9998
2    50 047.2289 157.8226 0114547 290.4347 068.4174 12.20112528668780
Epoch (UTC): 05 June 2020 16:13:47
Eccentricity: 0.0114547
inclination: 47.2289°
perigee height: 1501 km
apogee height: 1683 km
right ascension of ascending node: 157.8226°
argument of perigee: 290.4347°
revolutions per day: 12.20112528
mean anomaly at epoch: 68.4174°
orbit number at epoch: 66878

The dashed part of the orbit path shows where the satellite is in the earth's shadow,  

DLR